| time (UTC) | temp F | wind direction | speed MPH | gust MPH | rain 1hr in | rain 24hr in | rain mn in | humidity % | barometer mb |
| 20260506115023 | 44 | 0 | 0.0 | 0.0 | 0.00 | 0.00 | 0.00 | 90 | 1018.5 |
| 20260506114540 | 44 | 0 | 0.0 | 0.0 | 0.00 | 0.00 | 0.00 | 90 | 1018.5 |
| 20260506114030 | 44 | 0 | 0.0 | 0.0 | 0.00 | 0.00 | 0.00 | 90 | 1018.5 |
| 20260506113527 | 44 | 0 | 0.0 | 0.0 | 0.00 | 0.00 | 0.00 | 90 | 1018.5 |
| 20260506113047 | 44 | 0 | 0.0 | 2.0 | 0.00 | 0.00 | 0.00 | 90 | 1018.5 |
| 20260506112524 | 44 | 0 | 0.0 | 2.0 | 0.00 | 0.00 | 0.00 | 90 | 1018.5 |
| 20260506112028 | 44 | 114 | 0.0 | 2.0 | 0.00 | 0.00 | 0.00 | 90 | 1018.6 |
| 20260506111539 | 44 | 0 | 0.0 | 1.0 | 0.00 | 0.00 | 0.00 | 90 | 1018.6 |
| 20260506111025 | 44 | 0 | 0.0 | 0.0 | 0.00 | 0.00 | 0.00 | 90 | 1018.5 |
| 20260506110526 | 44 | 0 | 0.0 | 1.0 | 0.00 | 0.00 | 0.00 | 90 | 1018.6 |
| 20260506110039 | 44 | 0 | 0.0 | 1.0 | 0.00 | 0.00 | 0.00 | 90 | 1018.6 |
| 20260506105525 | 44 | 0 | 0.0 | 1.0 | 0.00 | 0.00 | 0.00 | 90 | 1018.5 |
| 20260506105026 | 44 | 0 | 0.0 | 1.0 | 0.00 | 0.00 | 0.00 | 89 | 1018.5 |
| 20260506104545 | 45 | 0 | 0.0 | 1.0 | 0.00 | 0.00 | 0.00 | 90 | 1018.5 |
| 20260506104024 | 44 | 0 | 0.0 | 1.0 | 0.00 | 0.00 | 0.00 | 90 | 1018.5 |
| 20260506103524 | 44 | 0 | 0.0 | 0.0 | 0.00 | 0.00 | 0.00 | 90 | 1018.5 |
| 20260506103041 | 45 | 0 | 0.0 | 2.0 | 0.00 | 0.00 | 0.00 | 89 | 1018.5 |
| 20260506102523 | 45 | 0 | 0.0 | 2.0 | 0.00 | 0.00 | 0.00 | 89 | 1018.6 |
| 20260506102028 | 45 | 0 | 0.0 | 0.0 | 0.00 | 0.00 | 0.00 | 89 | 1018.6 |
| 20260506101548 | 45 | 0 | 0.0 | 0.0 | 0.00 | 0.00 | 0.00 | 89 | 1018.6 |
| 20260506101026 | 45 | 0 | 0.0 | 0.0 | 0.00 | 0.00 | 0.00 | 89 | 1018.6 |
| 20260506100526 | 45 | 0 | 0.0 | 0.0 | 0.00 | 0.00 | 0.00 | 89 | 1018.6 |
| 20260506100040 | 45 | 0 | 0.0 | 0.0 | 0.00 | 0.00 | 0.00 | 89 | 1018.5 |
| 20260506095526 | 45 | 0 | 0.0 | 0.0 | 0.00 | 0.00 | 0.00 | 89 | 1018.5 |
| 20260506095027 | 45 | 0 | 0.0 | 0.0 | 0.00 | 0.00 | 0.00 | 89 | 1018.6 |
| 20260506094540 | 46 | 0 | 0.0 | 0.0 | 0.00 | 0.00 | 0.00 | 89 | 1018.5 |
| 20260506094026 | 46 | 0 | 0.0 | 0.0 | 0.00 | 0.00 | 0.00 | 89 | 1018.5 |
| 20260506093526 | 45 | 0 | 0.0 | 0.0 | 0.00 | 0.00 | 0.00 | 89 | 1018.5 |
| 20260506093038 | 45 | 0 | 0.0 | 0.0 | 0.00 | 0.00 | 0.00 | 89 | 1018.5 |
| 20260506092528 | 46 | 0 | 0.0 | 2.0 | 0.00 | 0.00 | 0.00 | 89 | 1018.5 |
| 20260506092026 | 46 | 0 | 0.0 | 3.0 | 0.00 | 0.00 | 0.00 | 89 | 1018.4 |
| 20260506091538 | 46 | 0 | 0.0 | 3.0 | 0.00 | 0.00 | 0.00 | 89 | 1018.3 |
| 20260506091026 | 46 | 104 | 1.0 | 3.0 | 0.00 | 0.00 | 0.00 | 89 | 1018.4 |
| 20260506090529 | 46 | 0 | 0.0 | 3.0 | 0.00 | 0.00 | 0.00 | 89 | 1018.4 |
| 20260506090037 | 46 | 0 | 0.0 | 2.0 | 0.00 | 0.00 | 0.00 | 89 | 1018.3 |
| 20260506085526 | 46 | 91 | 0.0 | 0.0 | 0.00 | 0.00 | 0.00 | 89 | 1018.3 |
| 20260506085027 | 46 | 0 | 0.0 | 0.0 | 0.00 | 0.00 | 0.00 | 89 | 1018.2 |
| 20260506084543 | 46 | 0 | 0.0 | 1.0 | 0.00 | 0.00 | 0.00 | 89 | 1018.4 |
| 20260506084026 | 46 | 0 | 0.0 | 1.0 | 0.00 | 0.00 | 0.00 | 89 | 1018.3 |
| 20260506083525 | 46 | 109 | 0.0 | 1.0 | 0.00 | 0.00 | 0.00 | 89 | 1018.3 |
| 20260506083041 | 46 | 0 | 0.0 | 2.0 | 0.00 | 0.00 | 0.00 | 89 | 1018.4 |
| 20260506082525 | 46 | 0 | 0.0 | 2.0 | 0.00 | 0.00 | 0.00 | 89 | 1018.4 |
| 20260506082026 | 46 | 117 | 0.0 | 2.0 | 0.00 | 0.00 | 0.00 | 89 | 1018.3 |
| 20260506081538 | 46 | 0 | 0.0 | 0.0 | 0.00 | 0.00 | 0.00 | 89 | 1018.3 |
| 20260506081030 | 47 | 0 | 0.0 | 0.0 | 0.00 | 0.00 | 0.00 | 89 | 1018.3 |
| 20260506080528 | 47 | 0 | 0.0 | 0.0 | 0.00 | 0.00 | 0.00 | 88 | 1018.3 |
| 20260506073526 | 47 | 0 | 0.0 | 0.0 | 0.00 | 0.00 | 0.00 | 88 | 1018.1 |
| 20260506073039 | 47 | 0 | 0.0 | 0.0 | 0.00 | 0.00 | 0.00 | 88 | 1018.1 |
| 20260506072525 | 48 | 0 | 0.0 | 0.0 | 0.00 | 0.00 | 0.00 | 88 | 1018.1 |
| 20260506072026 | 48 | 0 | 0.0 | 0.0 | 0.00 | 0.00 | 0.00 | 88 | 1018.1 |
| 20260506071542 | 48 | 0 | 0.0 | 0.0 | 0.00 | 0.00 | 0.00 | 88 | 1018.1 |
| 20260506071028 | 48 | 0 | 0.0 | 0.0 | 0.00 | 0.00 | 0.00 | 88 | 1017.9 |
| 20260506070526 | 48 | 0 | 0.0 | 0.0 | 0.00 | 0.00 | 0.00 | 88 | 1017.8 |
| 20260506062025 | 49 | 0 | 0.0 | 0.0 | 0.00 | 0.00 | 0.00 | 86 | 1017.3 |
| 20260506061538 | 50 | 0 | 0.0 | 0.0 | 0.00 | 0.00 | 0.00 | 86 | 1017.3 |
| 20260506061026 | 50 | 0 | 0.0 | 0.0 | 0.00 | 0.00 | 0.00 | 86 | 1017.3 |
| 20260506060526 | 50 | 0 | 0.0 | 0.0 | 0.00 | 0.00 | 0.00 | 86 | 1017.3 |
| 20260506051024 | 51 | 0 | 0.0 | 0.0 | 0.00 | 0.00 | 0.00 | 85 | 1017.0 |
| 20260506050528 | 51 | 0 | 0.0 | 0.0 | 0.00 | 0.00 | 0.00 | 85 | 1017.0 |
| 20260506045026 | 51 | 0 | 0.0 | 2.0 | 0.00 | 0.00 | 0.00 | 83 | 1016.8 |
| 20260506044539 | 51 | 0 | 0.0 | 2.0 | 0.00 | 0.00 | 0.00 | 83 | 1016.8 |
| 20260506044025 | 52 | 0 | 0.0 | 2.0 | 0.00 | 0.00 | 0.00 | 81 | 1016.7 |
| 20260506043528 | 52 | 0 | 0.0 | 3.0 | 0.00 | 0.00 | 0.00 | 83 | 1016.5 |
| 20260506043038 | 52 | 0 | 0.0 | 3.0 | 0.00 | 0.00 | 0.00 | 83 | 1016.6 |
| 20260506042526 | 52 | 117 | 1.0 | 3.0 | 0.00 | 0.00 | 0.00 | 83 | 1016.4 |
| 20260506042025 | 52 | 126 | 0.0 | 2.0 | 0.00 | 0.00 | 0.00 | 83 | 1016.4 |
| 20260506041542 | 52 | 0 | 0.0 | 1.0 | 0.00 | 0.00 | 0.00 | 82 | 1016.3 |
| 20260506041025 | 53 | 0 | 0.0 | 2.0 | 0.00 | 0.00 | 0.00 | 81 | 1016.2 |
| 20260506040526 | 53 | 0 | 0.0 | 3.0 | 0.00 | 0.00 | 0.00 | 80 | 1016.2 |
| 20260506040042 | 54 | 114 | 1.0 | 3.0 | 0.00 | 0.00 | 0.00 | 79 | 1016.1 |
| 20260506035525 | 54 | 126 | 1.0 | 3.0 | 0.00 | 0.00 | 0.00 | 79 | 1016.0 |
| 20260506035026 | 54 | 109 | 1.0 | 3.0 | 0.00 | 0.00 | 0.00 | 78 | 1016.0 |
| 20260506034538 | 54 | 105 | 0.0 | 2.0 | 0.00 | 0.00 | 0.00 | 77 | 1015.9 |
| 20260506034026 | 55 | 0 | 0.0 | 0.0 | 0.00 | 0.00 | 0.00 | 76 | 1015.8 |
| 20260506033524 | 56 | 0 | 0.0 | 0.0 | 0.00 | 0.00 | 0.00 | 75 | 1015.7 |
| 20260506033041 | 57 | 0 | 0.0 | 0.0 | 0.00 | 0.00 | 0.00 | 73 | 1015.7 |
| 20260506032525 | 57 | 0 | 0.0 | 2.0 | 0.00 | 0.00 | 0.00 | 73 | 1015.7 |
| 20260506032024 | 57 | 0 | 0.0 | 2.0 | 0.00 | 0.00 | 0.00 | 73 | 1015.6 |
| 20260506031538 | 57 | 0 | 0.0 | 2.0 | 0.00 | 0.00 | 0.00 | 72 | 1015.4 |
| 20260506031024 | 57 | 0 | 0.0 | 4.0 | 0.00 | 0.00 | 0.00 | 72 | 1015.3 |
| 20260506030525 | 58 | 121 | 0.0 | 4.0 | 0.00 | 0.00 | 0.00 | 71 | 1015.2 |
| 20260506030037 | 58 | 175 | 0.0 | 5.0 | 0.00 | 0.00 | 0.00 | 71 | 1015.0 |
| 20260506025524 | 58 | 0 | 1.0 | 5.0 | 0.00 | 0.00 | 0.00 | 71 | 1014.9 |
| 20260506025027 | 58 | 215 | 1.0 | 6.0 | 0.00 | 0.00 | 0.00 | 70 | 1014.9 |
| 20260506024542 | 58 | 180 | 2.0 | 6.0 | 0.00 | 0.00 | 0.00 | 70 | 1014.9 |
| 20260506024027 | 59 | 236 | 1.0 | 4.0 | 0.00 | 0.00 | 0.00 | 69 | 1014.7 |
| 20260506023524 | 59 | 0 | 1.0 | 8.0 | 0.00 | 0.00 | 0.00 | 69 | 1014.7 |
| 20260506023051 | 59 | 0 | 1.0 | 8.0 | 0.00 | 0.00 | 0.00 | 69 | 1014.7 |
| 20260506022524 | 59 | 215 | 2.0 | 8.0 | 0.00 | 0.00 | 0.00 | 68 | 1014.7 |
| 20260506022024 | 59 | 240 | 3.0 | 6.0 | 0.00 | 0.00 | 0.00 | 68 | 1014.6 |
| 20260506021543 | 59 | 213 | 2.0 | 8.0 | 0.00 | 0.00 | 0.00 | 68 | 1014.6 |
| 20260506021028 | 59 | 180 | 2.0 | 8.0 | 0.00 | 0.00 | 0.00 | 68 | 1014.6 |
| 20260506020526 | 60 | 230 | 3.0 | 9.0 | 0.00 | 0.00 | 0.00 | 68 | 1014.5 |
| 20260506020039 | 60 | 212 | 4.0 | 9.0 | 0.00 | 0.00 | 0.00 | 66 | 1014.5 |
| 20260506015525 | 60 | 242 | 2.0 | 12.0 | 0.00 | 0.00 | 0.00 | 66 | 1014.4 |
| 20260506015029 | 60 | 244 | 6.0 | 12.0 | 0.00 | 0.00 | 0.00 | 65 | 1014.4 |
| 20260506014540 | 60 | 246 | 6.0 | 12.0 | 0.00 | 0.00 | 0.00 | 64 | 1014.5 |
| 20260506014024 | 61 | 222 | 5.0 | 12.0 | 0.00 | 0.00 | 0.00 | 64 | 1014.4 |
| 20260506013524 | 61 | 257 | 5.0 | 12.0 | 0.00 | 0.00 | 0.00 | 63 | 1014.5 |
| 20260506013037 | 61 | 232 | 7.0 | 11.0 | 0.00 | 0.00 | 0.00 | 65 | 1014.4 |
| 20260506012524 | 61 | 267 | 6.0 | 11.0 | 0.00 | 0.00 | 0.00 | 64 | 1014.5 |
| 20260506012025 | 61 | 246 | 5.0 | 12.0 | 0.00 | 0.00 | 0.00 | 64 | 1014.5 |
| 20260506011540 | 61 | 220 | 5.0 | 14.0 | 0.00 | 0.00 | 0.00 | 65 | 1014.6 |
| 20260506011025 | 61 | 252 | 6.0 | 14.0 | 0.00 | 0.00 | 0.00 | 64 | 1014.6 |
| 20260506010526 | 61 | 279 | 6.0 | 11.0 | 0.00 | 0.00 | 0.00 | 63 | 1014.5 |
| 20260506010049 | 61 | 267 | 4.0 | 12.0 | 0.00 | 0.00 | 0.00 | 63 | 1014.5 |
| 20260506005524 | 61 | 221 | 6.0 | 12.0 | 0.00 | 0.00 | 0.00 | 62 | 1014.6 |
| 20260506005024 | 62 | 229 | 6.0 | 13.0 | 0.00 | 0.00 | 0.00 | 62 | 1014.6 |
| 20260506004543 | 62 | 221 | 5.0 | 13.0 | 0.00 | 0.00 | 0.00 | 62 | 1014.5 |
| 20260506004025 | 62 | 215 | 7.0 | 13.0 | 0.00 | 0.00 | 0.00 | 62 | 1014.4 |
| 20260506003525 | 62 | 259 | 8.0 | 14.0 | 0.00 | 0.00 | 0.00 | 61 | 1014.5 |
| 20260506003038 | 62 | 242 | 6.0 | 14.0 | 0.00 | 0.00 | 0.00 | 61 | 1014.5 |
| 20260506002523 | 62 | 201 | 8.0 | 13.0 | 0.00 | 0.00 | 0.00 | 62 | 1014.4 |
| 20260506002024 | 63 | 244 | 6.0 | 13.0 | 0.00 | 0.00 | 0.00 | 60 | 1014.4 |
| 20260506001544 | 63 | 243 | 7.0 | 13.0 | 0.00 | 0.00 | 0.00 | 61 | 1014.5 |
| 20260506001024 | 63 | 273 | 7.0 | 15.0 | 0.00 | 0.00 | 0.00 | 61 | 1014.4 |
| 20260506000524 | 63 | 237 | 9.0 | 15.0 | 0.00 | 0.00 | 0.00 | 61 | 1014.6 |
| 20260506000037 | 64 | 192 | 7.0 | 13.0 | 0.00 | 0.00 | 0.00 | 60 | 1014.5 |
| 20260505235526 | 64 | 228 | 9.0 | 13.0 | 0.00 | 0.00 | 0.00 | 60 | 1014.4 |
| 20260505235027 | 64 | 238 | 8.0 | 12.0 | 0.00 | 0.00 | 0.00 | 59 | 1014.4 |
| 20260505234601 | 65 | 227 | 7.0 | 11.0 | 0.00 | 0.00 | 0.00 | 59 | 1014.4 |
| 20260505234026 | 65 | 286 | 5.0 | 11.0 | 0.00 | 0.00 | 0.00 | 59 | 1014.4 |
| 20260505233525 | 65 | 203 | 6.0 | 10.0 | 0.00 | 0.00 | 0.00 | 58 | 1014.4 |
| 20260505233042 | 65 | 188 | 6.0 | 12.0 | 0.00 | 0.00 | 0.00 | 59 | 1014.4 |
| 20260505232526 | 65 | 207 | 7.0 | 12.0 | 0.00 | 0.00 | 0.00 | 58 | 1014.5 |
| 20260505232026 | 65 | 208 | 6.0 | 11.0 | 0.00 | 0.00 | 0.00 | 58 | 1014.5 |
| 20260505231539 | 66 | 196 | 4.0 | 11.0 | 0.00 | 0.00 | 0.00 | 56 | 1014.6 |
| 20260505231024 | 66 | 252 | 7.0 | 11.0 | 0.00 | 0.00 | 0.00 | 54 | 1014.4 |
| 20260505230526 | 66 | 253 | 6.0 | 11.0 | 0.00 | 0.00 | 0.00 | 57 | 1014.4 |
| 20260505230038 | 65 | 243 | 7.0 | 15.0 | 0.00 | 0.00 | 0.00 | 57 | 1014.5 |
| 20260505225525 | 65 | 231 | 5.0 | 15.0 | 0.00 | 0.00 | 0.00 | 57 | 1014.5 |
| 20260505225025 | 65 | 225 | 8.0 | 14.0 | 0.00 | 0.00 | 0.00 | 56 | 1014.6 |
| 20260505224539 | 65 | 306 | 4.0 | 10.0 | 0.00 | 0.00 | 0.00 | 56 | 1014.6 |
| 20260505224025 | 66 | 275 | 3.0 | 11.0 | 0.00 | 0.00 | 0.00 | 57 | 1014.6 |
| 20260505223528 | 65 | 294 | 3.0 | 11.0 | 0.00 | 0.00 | 0.00 | 56 | 1014.7 |
| 20260505223040 | 66 | 239 | 6.0 | 11.0 | 0.00 | 0.00 | 0.00 | 56 | 1014.6 |
| 20260505222526 | 66 | 216 | 3.0 | 11.0 | 0.00 | 0.00 | 0.00 | 57 | 1014.7 |
| 20260505222026 | 66 | 246 | 5.0 | 9.0 | 0.00 | 0.00 | 0.00 | 56 | 1014.8 |
| 20260505221542 | 65 | 252 | 5.0 | 9.0 | 0.00 | 0.00 | 0.00 | 57 | 1014.7 |
| 20260505221029 | 64 | 251 | 2.0 | 10.0 | 0.00 | 0.00 | 0.00 | 59 | 1014.7 |
| 20260505220523 | 64 | 227 | 5.0 | 10.0 | 0.00 | 0.00 | 0.00 | 59 | 1014.9 |
| 20260505220042 | 64 | 236 | 5.0 | 11.0 | 0.00 | 0.00 | 0.00 | 59 | 1014.9 |
| 20260505215525 | 64 | 216 | 7.0 | 11.0 | 0.00 | 0.00 | 0.00 | 59 | 1014.9 |
| 20260505215024 | 65 | 213 | 5.0 | 10.0 | 0.00 | 0.00 | 0.00 | 58 | 1015.0 |
| 20260505214559 | 64 | 250 | 5.0 | 11.0 | 0.00 | 0.00 | 0.00 | 58 | 1015.1 |
| 20260505214025 | 65 | 211 | 6.0 | 11.0 | 0.00 | 0.00 | 0.00 | 57 | 1015.2 |
| 20260505213524 | 64 | 227 | 6.0 | 11.0 | 0.00 | 0.00 | 0.00 | 59 | 1015.2 |
| 20260505213042 | 64 | 256 | 7.0 | 13.0 | 0.00 | 0.00 | 0.00 | 58 | 1015.2 |
| 20260505212526 | 64 | 186 | 8.0 | 13.0 | 0.00 | 0.00 | 0.00 | 59 | 1015.3 |
| 20260505212024 | 63 | 248 | 5.0 | 13.0 | 0.00 | 0.00 | 0.00 | 59 | 1015.3 |
| 20260505211539 | 64 | 275 | 3.0 | 9.0 | 0.00 | 0.00 | 0.00 | 58 | 1015.3 |
| 20260505211028 | 64 | 248 | 4.0 | 10.0 | 0.00 | 0.00 | 0.00 | 59 | 1015.3 |
| 20260505210526 | 64 | 259 | 6.0 | 10.0 | 0.00 | 0.00 | 0.00 | 59 | 1015.2 |
| 20260505210040 | 64 | 293 | 4.0 | 10.0 | 0.00 | 0.00 | 0.00 | 60 | 1015.2 |
| 20260505205526 | 64 | 227 | 3.0 | 9.0 | 0.00 | 0.00 | 0.00 | 60 | 1015.2 |
| 20260505205025 | 64 | 224 | 3.0 | 9.0 | 0.00 | 0.00 | 0.00 | 59 | 1015.1 |
| 20260505204548 | 65 | 262 | 2.0 | 8.0 | 0.00 | 0.00 | 0.00 | 57 | 1015.2 |
| 20260505204024 | 64 | 233 | 3.0 | 7.0 | 0.00 | 0.00 | 0.00 | 58 | 1015.1 |
| 20260505203524 | 64 | 253 | 2.0 | 8.0 | 0.00 | 0.00 | 0.00 | 59 | 1015.1 |
| 20260505203046 | 64 | 259 | 1.0 | 11.0 | 0.00 | 0.00 | 0.00 | 59 | 1015.1 |
| 20260505202525 | 64 | 221 | 4.0 | 11.0 | 0.00 | 0.00 | 0.00 | 59 | 1015.1 |
| 20260505202024 | 64 | 224 | 6.0 | 11.0 | 0.00 | 0.00 | 0.00 | 59 | 1015.0 |
| 20260505201539 | 64 | 217 | 6.0 | 9.0 | 0.00 | 0.00 | 0.00 | 59 | 1015.2 |
| 20260505201024 | 64 | 180 | 5.0 | 9.0 | 0.00 | 0.00 | 0.00 | 59 | 1015.2 |
| 20260505200527 | 63 | 302 | 3.0 | 8.0 | 0.00 | 0.00 | 0.00 | 60 | 1015.3 |
| 20260505200058 | 63 | 294 | 4.0 | 8.0 | 0.00 | 0.00 | 0.00 | 61 | 1015.3 |
| 20260505195526 | 63 | 300 | 3.0 | 9.0 | 0.00 | 0.00 | 0.00 | 59 | 1015.3 |
| 20260505195026 | 64 | 237 | 3.0 | 9.0 | 0.00 | 0.00 | 0.00 | 59 | 1015.1 |
| 20260505194545 | 63 | 246 | 3.0 | 9.0 | 0.00 | 0.00 | 0.00 | 60 | 1015.3 |
| 20260505194026 | 63 | 277 | 5.0 | 9.0 | 0.00 | 0.00 | 0.00 | 60 | 1015.3 |
| 20260505193526 | 62 | 266 | 4.0 | 11.0 | 0.00 | 0.00 | 0.00 | 61 | 1015.3 |
| 20260505193042 | 62 | 234 | 4.0 | 11.0 | 0.00 | 0.00 | 0.00 | 61 | 1015.3 |
| 20260505192528 | 62 | 228 | 6.0 | 11.0 | 0.00 | 0.00 | 0.00 | 61 | 1015.3 |
| 20260505192025 | 62 | 246 | 5.0 | 10.0 | 0.00 | 0.00 | 0.00 | 61 | 1015.2 |
| 20260505191538 | 63 | 242 | 6.0 | 11.0 | 0.00 | 0.00 | 0.00 | 61 | 1015.3 |
| 20260505191026 | 62 | 242 | 4.0 | 11.0 | 0.00 | 0.00 | 0.00 | 61 | 1015.2 |
| 20260505190526 | 62 | 224 | 4.0 | 11.0 | 0.00 | 0.00 | 0.00 | 61 | 1015.1 |
| 20260505190039 | 62 | 169 | 0.0 | 6.0 | 0.00 | 0.00 | 0.00 | 59 | 1015.2 |
| 20260505185528 | 63 | 211 | 3.0 | 8.0 | 0.00 | 0.00 | 0.00 | 58 | 1015.2 |
| 20260505185025 | 63 | 267 | 2.0 | 10.0 | 0.00 | 0.00 | 0.00 | 56 | 1015.1 |
| 20260505184538 | 63 | 319 | 3.0 | 10.0 | 0.00 | 0.00 | 0.00 | 57 | 1015.1 |
| 20260505184024 | 63 | 323 | 6.0 | 10.0 | 0.00 | 0.00 | 0.00 | 58 | 1015.3 |
| 20260505183525 | 62 | 31 | 2.0 | 9.0 | 0.00 | 0.00 | 0.00 | 57 | 1015.2 |
| 20260505183044 | 62 | 283 | 1.0 | 9.0 | 0.00 | 0.00 | 0.00 | 58 | 1015.2 |
| 20260505182524 | 62 | 0 | 3.0 | 9.0 | 0.00 | 0.00 | 0.00 | 58 | 1015.1 |
| 20260505182025 | 61 | 0 | 0.0 | 4.0 | 0.00 | 0.00 | 0.00 | 60 | 1015.3 |
| 20260505181541 | 62 | 183 | 0.0 | 4.0 | 0.00 | 0.00 | 0.00 | 59 | 1015.3 |
| 20260505181024 | 61 | 60 | 1.0 | 5.0 | 0.00 | 0.00 | 0.00 | 62 | 1015.3 |
| 20260505180525 | 61 | 151 | 0.0 | 6.0 | 0.00 | 0.00 | 0.00 | 60 | 1015.3 |
| 20260505175528 | 60 | 86 | 1.0 | 7.0 | 0.00 | 0.00 | 0.00 | 63 | 1015.2 |
| 20260505175029 | 61 | 80 | 3.0 | 7.0 | 0.00 | 0.00 | 0.00 | 62 | 1015.2 |
| 20260505174556 | 60 | 81 | 2.0 | 5.0 | 0.00 | 0.00 | 0.00 | 62 | 1015.2 |
| 20260505174026 | 59 | 262 | 1.0 | 5.0 | 0.00 | 0.00 | 0.00 | 63 | 1015.2 |
| 20260505173529 | 60 | 5 | 3.0 | 5.0 | 0.00 | 0.00 | 0.00 | 64 | 1015.2 |
| 20260505173044 | 59 | 37 | 1.0 | 5.0 | 0.00 | 0.00 | 0.00 | 65 | 1015.2 |
| 20260505172524 | 59 | 0 | 0.0 | 5.0 | 0.00 | 0.00 | 0.00 | 64 | 1015.2 |
| 20260505172024 | 59 | 299 | 2.0 | 5.0 | 0.00 | 0.00 | 0.00 | 64 | 1015.2 |
| 20260505171537 | 59 | 54 | 1.0 | 7.0 | 0.00 | 0.00 | 0.00 | 64 | 1015.3 |
| 20260505171028 | 58 | 26 | 3.0 | 7.0 | 0.00 | 0.00 | 0.00 | 64 | 1015.4 |
| 20260505170525 | 58 | 0 | 1.0 | 5.0 | 0.00 | 0.00 | 0.00 | 65 | 1015.4 |
| 20260505170043 | 58 | 44 | 1.0 | 8.0 | 0.00 | 0.00 | 0.00 | 67 | 1015.5 |
| 20260505165525 | 57 | 42 | 3.0 | 8.0 | 0.00 | 0.00 | 0.00 | 68 | 1015.6 |
| 20260505165027 | 57 | 35 | 2.0 | 5.0 | 0.00 | 0.00 | 0.00 | 69 | 1015.6 |
| 20260505164539 | 57 | 16 | 2.0 | 5.0 | 0.00 | 0.00 | 0.00 | 69 | 1015.5 |
| 20260505164024 | 56 | 298 | 0.0 | 3.0 | 0.00 | 0.00 | 0.00 | 70 | 1015.4 |
| 20260505163524 | 55 | 327 | 0.0 | 3.0 | 0.00 | 0.00 | 0.00 | 72 | 1015.3 |
| 20260505163039 | 55 | 0 | 0.0 | 3.0 | 0.00 | 0.00 | 0.00 | 72 | 1015.4 |
| 20260505162525 | 55 | 271 | 0.0 | 5.0 | 0.00 | 0.00 | 0.00 | 73 | 1015.4 |
| 20260505162025 | 55 | 0 | 2.0 | 6.0 | 0.00 | 0.00 | 0.00 | 73 | 1015.3 |
| 20260505161539 | 55 | 352 | 1.0 | 6.0 | 0.00 | 0.00 | 0.00 | 73 | 1015.3 |
| 20260505161028 | 55 | 337 | 2.0 | 5.0 | 0.00 | 0.00 | 0.00 | 73 | 1015.1 |
| 20260505160527 | 54 | 0 | 0.0 | 6.0 | 0.00 | 0.00 | 0.00 | 75 | 1015.2 |
| 20260505153043 | 52 | 0 | 0.0 | 3.0 | 0.00 | 0.00 | 0.00 | 81 | 1015.3 |
| 20260505152524 | 52 | 94 | 0.0 | 3.0 | 0.00 | 0.00 | 0.00 | 82 | 1015.2 |
| 20260505152024 | 51 | 0 | 0.0 | 2.0 | 0.00 | 0.00 | 0.00 | 82 | 1015.0 |
| 20260505151539 | 51 | 0 | 0.0 | 3.0 | 0.00 | 0.00 | 0.00 | 82 | 1014.9 |
| 20260505151025 | 51 | 0 | 0.0 | 3.0 | 0.00 | 0.00 | 0.00 | 83 | 1015.0 |
| 20260505150526 | 51 | 76 | 1.0 | 3.0 | 0.00 | 0.00 | 0.00 | 83 | 1014.9 |
| 20260505140524 | 49 | 0 | 0.0 | 0.0 | 0.00 | 0.00 | 0.00 | 87 | 1014.7 |
| 20260505125027 | 49 | 0 | 0.0 | 0.0 | 0.00 | 0.00 | 0.00 | 85 | 1014.1 |
| 20260505124546 | 49 | 0 | 0.0 | 0.0 | 0.00 | 0.00 | 0.00 | 85 | 1014.1 |
| 20260505124025 | 49 | 0 | 0.0 | 0.0 | 0.00 | 0.00 | 0.00 | 85 | 1014.2 |
| 20260505123525 | 49 | 0 | 0.0 | 0.0 | 0.00 | 0.00 | 0.00 | 85 | 1014.1 |
| 20260505123047 | 49 | 0 | 0.0 | 0.0 | 0.00 | 0.00 | 0.00 | 85 | 1014.1 |
| 20260505122526 | 49 | 0 | 0.0 | 0.0 | 0.00 | 0.00 | 0.00 | 85 | 1014.0 |
| 20260505122035 | 49 | 0 | 0.0 | 1.0 | 0.00 | 0.00 | 0.00 | 85 | 1014.1 |
| 20260505121540 | 50 | 0 | 0.0 | 1.0 | 0.00 | 0.00 | 0.00 | 85 | 1014.1 |
| 20260505121026 | 50 | 108 | 0.0 | 1.0 | 0.00 | 0.00 | 0.00 | 85 | 1014.0 |
| 20260505120525 | 50 | 0 | 0.0 | 2.0 | 0.00 | 0.00 | 0.00 | 85 | 1014.0 |
| 20260505120041 | 50 | 0 | 0.0 | 3.0 | 0.00 | 0.00 | 0.00 | 85 | 1014.1 |
| 20260505115525 | 50 | 113 | 1.0 | 3.0 | 0.00 | 0.00 | 0.00 | 85 | 1014.0 |